Location: Chillicothe
(39.7950°N, 93.5520°W)
Time: 05:44:20
(UTC-06:00)

Vanguard 3 - Pass Details

Date: 25 October 2019
Orbit: 508 x 3263 km, 33.3° (Epoch: 11 November)

Event Time Altitude Azimuth Distance (km) Brightness Sun altitude
Rises 02:11:06 0° 261° (W) 2,682 - -57.9°
Reaches altitude 10° 02:13:31 10° 249° (WSW) 1,720 - -57.7°
Maximum altitude 02:16:43 28° 187° (S) 981 - -57.3°
Drops below altitude 10° 02:20:13 10° 127° (SE) 1,888 - -56.9°
Sets 02:23:00 0° 115° (ESE) 3,008 - -56.5°
